Regional Weather Roundup
Issued by NWS

Home | Current Version | Previous Version | Graphics & Text | Print | Product List | Glossary On
Versions: 1 2 3 4 5 6 7 8 9 10 11 12 13 14 15 16 17 18 19 20 21 22 23 24 25 26 27 28 29 30 31 32 33 34 35 36 37 38 39 40 41 42 43 44 45 46 47 48 49 50
000
ASUS43 KOAX 021002
RWRNE
WEATHER ROUNDUP FOR NEBRASKA
NATIONAL WEATHER SERVICE OMAHA NE
500 AM CDT TUE JUN 02 2015

NOTES: SATELLITE DATA IS BEING USED TO AUGMENT CLOUD COVER ABOVE
       12000 FEET.
       "FAIR" INDICATES FEW OR NO CLOUDS BELOW 12,000 FEET WITH NO
       SIGNIFICANT WEATHER AND/OR OBSTRUCTIONS TO VISIBILITY.

  * THESE STATIONS DO NOT REPORT WEATHER SUCH AS RAIN...SNOW OR FOG.

NEZ001>004-019>022-054>056-021100-
NEBRASKA PANHANDLE

CITY           SKY/WX    TMP DP  RH WIND       PRES   REMARKS
SCOTTSBLUFF    CLOUDY    62  53  72 E10G22    29.87F
ALLIANCE       PTCLDY    57  53  86 S7        29.90R
CHADRON        PTCLDY    62  51  67 SW12      29.86R
KIMBALL          N/A    N/A N/A N/A MISG        N/A
SIDNEY         PTCLDY    58  55  90 S9        29.95S
$$

NEZ057>060-069>072-079>082-021100-
SOUTHWEST NEBRASKA

CITY           SKY/WX    TMP DP  RH WIND       PRES   REMARKS
NORTH PLATTE   CLOUDY    65  55  70 S16G23    29.88F
IMPERIAL       CLOUDY    60  56  86 E8        29.96F
LEXINGTON      RAIN      63  62  96 S18       29.92F
MCCOOK         CLOUDY    63  57  81 E10       29.92F
$$

NEZ005>010-023>029-035>040-094-021100-
NORTH CENTRAL NEBRASKA

CITY           SKY/WX    TMP DP  RH WIND       PRES   REMARKS
AINSWORTH      CLOUDY    63  60  89 S9        29.86F
BROKEN BOW     LGT RAIN  65  60  84 S16G24    29.90R
O`NEILL        CLOUDY    64  57  80 S14       29.91F
ORD            CLOUDY    63  57  81 SE7       29.92R
$$

NEZ041-046>049-061>064-073>077-083>087-021100-
SOUTH CENTRAL NEBRASKA

CITY           SKY/WX    TMP DP  RH WIND       PRES   REMARKS
GRAND ISLAND   CLOUDY    62  56  80 S12       29.99F
HASTINGS       CLOUDY    62  57  83 SW8       30.02F
KEARNEY *      CLOUDY    63  57  82 S18       29.94F
$$

NEZ011>018-030>034-042>045-021100-
NORTHEAST NEBRASKA

CITY           SKY/WX    TMP DP  RH WIND       PRES   REMARKS
NORFOLK        MOCLDY    60  55  83 SE9G21    30.00R
COLUMBUS *     CLOUDY    61  52  72 S12       30.04R
FREMONT        MOCLDY    59  54  82 SE10      30.05R
TEKAMAH        CLOUDY    59  53  80 S10       30.06R
$$

NEZ050>053-065>068-078-088>093-021100-
SOUTHEAST NEBRASKA

CITY           SKY/WX    TMP DP  RH WIND       PRES   REMARKS
LINCOLN        CLOUDY    58  53  84 S14       30.05S
OMAHA EPPLEY   CLOUDY    57  53  86 SE9       30.07R
FALLS CITY     MOCLDY    55  52  89 SE5       30.06F
PLATTSMOUTH    MOCLDY    55  52  89 SE9       30.06S
$$

NEZ044-045-051>053-067-021100-
OMAHA AREA

CITY           SKY/WX    TMP DP  RH WIND       PRES   REMARKS
OMAHA EPPLEY   CLOUDY    57  53  86 SE9       30.07R
FREMONT        MOCLDY    59  54  82 SE10      30.05R
OFFUTT AFB     MOCLDY    56  53  90 SE6       30.06R
PLATTSMOUTH    MOCLDY    55  52  89 SE9       30.06S
$$



USA.gov is the U.S. government's official web portal to all federal, state and local government web resources and services.